Location: Foulognes
(49.1413°N, 0.8183°W)
Time: 15:29:05
(UTC+00:00)

Okean 3 Rocket - Pass Details

Date: 21 October 2019
Orbit: 614 x 645 km, 82.5° (Epoch: 22 November)

Event Time Altitude Azimuth Distance (km) Brightness Sun altitude
Rises 18:52:43 0° 353° (N) 2,966 7.2 -18.7°
Reaches altitude 10° 18:55:02 10° 359° (N) 2,049 6.3 -19.1°
Maximum altitude 18:59:29 53° 76° (ENE) 789 3.7 -19.8°
Enters shadow 19:00:15 47° 112° (ESE) 850 3.8 -19.9°
